TimeEDT,TemperatureF,Dew PointF,Humidity,Sea Level PressureIn,VisibilityMPH,Wind Direction,Wind SpeedMPH,Gust SpeedMPH,PrecipitationIn,Events,Conditions,WindDirDegrees,DateUTC
12:15 AM,64.4,57.2,77,30.10,10.0,Calm,Calm,-,N/A,,Clear,0,2013-08-01 04:15:00
12:35 AM,64.4,57.2,77,30.09,10.0,Calm,Calm,-,N/A,,Clear,0,2013-08-01 04:35:00
12:55 AM,64.4,59.0,83,30.08,10.0,Calm,Calm,-,N/A,,Clear,0,2013-08-01 04:55:00
1:15 AM,64.4,57.2,77,30.08,10.0,Calm,Calm,-,N/A,,Clear,0,2013-08-01 05:15:00
1:35 AM,62.6,57.2,82,30.07,10.0,Calm,Calm,-,N/A,,Clear,0,2013-08-01 05:35:00
1:55 AM,62.6,57.2,82,30.07,10.0,Calm,Calm,-,N/A,,Clear,0,2013-08-01 05:55:00
2:15 AM,60.8,57.2,88,30.06,10.0,Calm,Calm,-,N/A,,Clear,0,2013-08-01 06:15:00
2:35 AM,60.8,55.4,82,30.06,10.0,Calm,Calm,-,N/A,,Clear,0,2013-08-01 06:35:00
2:55 AM,60.8,55.4,82,30.05,10.0,Calm,Calm,-,N/A,,Clear,0,2013-08-01 06:55:00
3:15 AM,60.8,55.4,82,30.04,10.0,Calm,Calm,-,N/A,,Clear,0,2013-08-01 07:15:00
3:35 AM,60.8,55.4,82,30.04,10.0,Calm,Calm,-,N/A,,Clear,0,2013-08-01 07:35:00
3:55 AM,60.8,55.4,82,30.03,10.0,Calm,Calm,-,N/A,,Clear,0,2013-08-01 07:55:00
4:15 AM,60.8,55.4,82,30.03,10.0,Calm,Calm,-,N/A,,Clear,0,2013-08-01 08:15:00
4:35 AM,60.8,55.4,82,30.03,10.0,Calm,Calm,-,N/A,,Clear,0,2013-08-01 08:35:00
4:55 AM,60.8,55.4,82,30.02,10.0,Calm,Calm,-,N/A,,Clear,0,2013-08-01 08:55:00
5:15 AM,60.8,55.4,82,30.02,10.0,SE,3.5,-,N/A,,Clear,130,2013-08-01 09:15:00
5:35 AM,60.8,57.2,88,30.02,10.0,Calm,Calm,-,N/A,,Clear,0,2013-08-01 09:35:00
5:45 AM,62.6,57.2,82,30.03,6.0,Calm,Calm,-,N/A,,Clear,0,2013-08-01 09:45:00
7:45 AM,66.2,62.6,88,30.03,5.0,SE,4.6,-,N/A,,Mostly Cloudy,140,2013-08-01 11:45:00
8:45 AM,69.8,64.4,83,30.02,5.0,South,9.2,-,N/A,,Overcast,170,2013-08-01 12:45:00
9:45 AM,71.6,64.4,78,29.99,5.0,South,6.9,-,N/A,,Overcast,170,2013-08-01 13:45:00
10:45 AM,75.2,64.4,69,29.99,7.0,South,6.9,-,N/A,,Mostly Cloudy,170,2013-08-01 14:45:00
11:45 AM,73.4,62.6,69,29.97,7.0,South,11.5,-,N/A,,Mostly Cloudy,170,2013-08-01 15:45:00
1:45 PM,68.0,62.6,83,29.96,4.0,SSW,10.4,-,N/A,Rain,Light Rain,210,2013-08-01 17:45:00
2:55 PM,68.0,62.6,83,29.96,4.0,SSW,13.8,20.7,N/A,Rain,Light Rain,210,2013-08-01 18:55:00
3:45 PM,66.2,60.8,83,29.96,6.0,South,6.9,-,N/A,Rain,Light Rain,190,2013-08-01 19:45:00
4:45 PM,66.2,62.6,88,29.94,8.0,South,9.2,-,N/A,,Overcast,180,2013-08-01 20:45:00
5:45 PM,66.2,62.6,88,29.92,8.0,South,6.9,-,N/A,,Overcast,170,2013-08-01 21:45:00
6:45 PM,66.2,62.6,88,29.92,8.0,SSE,6.9,-,N/A,,Overcast,160,2013-08-01 22:45:00
7:45 PM,66.2,62.6,88,29.92,6.0,SSE,8.1,-,N/A,,Overcast,160,2013-08-01 23:45:00
8:05 PM,66.2,60.8,83,29.92,6.0,South,8.1,-,N/A,,Overcast,170,2013-08-02 00:05:00
9:15 PM,64.4,60.8,88,29.91,4.0,South,6.9,-,N/A,,Overcast,170,2013-08-02 01:15:00
9:35 PM,64.4,62.6,94,29.91,4.0,SSE,8.1,-,N/A,,Overcast,160,2013-08-02 01:35:00
9:55 PM,64.4,62.6,94,29.91,5.0,South,8.1,-,0.20,,Overcast,170,2013-08-02 01:55:00
10:15 PM,66.2,62.6,88,29.90,5.0,SSE,8.1,-,0.06,,Overcast,160,2013-08-02 02:15:00
10:35 PM,66.2,62.6,88,29.90,5.0,SSE,5.8,-,0.08,,Overcast,160,2013-08-02 02:35:00
10:55 PM,66.2,62.6,88,29.88,3.0,SSE,6.9,-,N/A,,Overcast,150,2013-08-02 02:55:00
11:15 PM,66.2,62.6,88,29.88,2.5,SSE,6.9,-,N/A,,Overcast,160,2013-08-02 03:15:00
11:35 PM,66.2,62.6,88,29.88,4.0,SSE,6.9,-,N/A,,Overcast,160,2013-08-02 03:35:00
11:55 PM,66.2,62.6,88,29.87,4.0,South,5.8,-,N/A,,Overcast,170,2013-08-02 03:55:00